Date String (YYYY-MM-DD hh:mm:ss) UTC,Instrument flags,Ambient pressure (hPa),Sample flow (lpm),Bypass flow (lpm),Sample temperature (°C),Ambient temperature (°C),ASC tube jacket temperature (°C),LED temperature (°C),Box temperature (°C),Sample RH (%),Span deviation,Mass concentration (μg/m³),Mass concentration (μg/m³),Mass concentration (μg/m³)
DateTimeUTC,F1_M11,P_M11,Q1_M11,Q2_M11,T1_M11,T2_M11,T3_M11,T4_M11,T5_M11,U1_M11,ZSPAN_M11,X2_M11,X0_M11,X1_M11
2022-01-24 02:00:00,,0823.2,5.00,0.00,26.0,25.2,00.0,35.1,27.8,08.4,0000.0,0004.92,0009.91,0004.60
2022-01-24 02:01:00,,0823.2,5.01,0.00,26.0,25.2,00.0,35.1,27.7,08.4,0000.0,0004.87,0009.79,0004.55
2022-01-24 02:02:00,,0823.2,5.00,0.00,26.0,25.2,00.0,35.1,27.7,08.3,0000.0,0004.82,0009.21,0004.51
2022-01-24 02:03:00,,0823.2,4.99,0.00,26.0,25.2,00.0,35.1,27.7,08.2,0000.0,0004.80,0009.04,0004.48
2022-01-24 02:04:00,,0823.2,4.99,0.00,26.0,25.2,00.0,35.1,27.7,08.2,0000.0,0004.77,0009.20,0004.46
2022-01-24 02:05:00,,0823.2,5.01,0.00,26.0,25.2,00.0,35.1,27.7,08.3,0000.0,0004.77,0009.10,0004.45
2022-01-24 02:06:00,,0823.1,5.01,0.00,26.0,25.2,00.0,35.1,27.7,08.2,0000.0,0004.81,0009.15,0004.48
2022-01-24 02:07:00,,0823.1,4.99,0.00,25.9,25.2,00.0,35.1,27.6,08.3,0000.0,0004.82,0009.25,0004.47
2022-01-24 02:08:00,,0823.1,5.00,0.00,25.9,25.1,00.0,35.0,27.6,08.3,0000.0,0004.81,0009.37,0004.46
2022-01-24 02:09:00,,0823.1,5.01,0.00,25.9,25.1,00.0,35.0,27.6,08.1,0000.0,0004.86,0009.23,0004.52
2022-01-24 02:10:00,,0823.1,4.99,0.00,25.9,25.1,00.0,35.0,27.6,08.0,0000.0,0004.95,0009.10,0004.60
2022-01-24 02:11:00,,0823.0,5.00,0.00,25.9,25.1,00.0,35.0,27.6,08.0,0000.0,0005.01,0008.83,0004.66
2022-01-24 02:12:00,,0823.1,5.02,0.00,25.9,25.1,00.0,35.0,27.6,07.9,0000.0,0005.08,0008.88,0004.73
2022-01-24 02:13:00,,0823.0,5.00,0.00,25.8,25.1,00.0,35.0,27.6,07.9,0000.0,0005.12,0008.84,0004.78
2022-01-24 02:14:00,,0823.0,5.02,0.00,25.8,25.0,00.0,34.9,27.6,07.9,0000.0,0005.13,0008.53,0004.81
2022-01-24 02:15:00,,0822.9,4.99,0.00,25.8,25.0,00.0,34.9,27.5,07.9,0000.0,0005.15,0008.24,0004.84
2022-01-24 02:16:00,,0823.0,5.01,0.00,25.8,25.0,00.0,34.9,27.5,07.9,0000.0,0005.16,0008.16,0004.87
2022-01-24 02:17:00,,0822.9,5.00,0.00,25.8,25.0,00.0,34.9,27.5,07.9,0000.0,0005.15,0008.14,0004.89
2022-01-24 02:18:00,,0822.9,5.01,0.00,25.8,25.0,00.0,34.9,27.5,08.0,0000.0,0005.17,0007.99,0004.93
2022-01-24 02:19:00,,0822.9,4.99,0.00,25.8,25.0,00.0,34.9,27.5,08.3,0000.0,0005.15,0007.70,0004.93
2022-01-24 02:20:00,,0822.9,4.99,0.00,25.7,25.0,00.0,34.9,27.4,08.1,0000.0,0005.13,0007.67,0004.89
2022-01-24 02:21:00,,0822.9,5.02,0.00,25.7,24.9,00.0,34.8,27.4,08.0,0000.0,0005.08,0007.62,0004.85
2022-01-24 02:22:00,,0822.8,5.00,0.00,25.7,24.9,00.0,34.8,27.4,08.1,0000.0,0005.07,0007.61,0004.83
2022-01-24 02:23:00,,0822.8,4.99,0.00,25.7,24.9,00.0,34.8,27.4,08.0,0000.0,0005.05,0007.65,0004.80
2022-01-24 02:24:00,,0822.7,4.99,0.00,25.7,24.9,00.0,34.8,27.4,08.3,0000.0,0005.03,0007.65,0004.75
2022-01-24 02:25:00,,0822.7,5.01,0.00,25.7,24.9,00.0,34.8,27.4,08.3,0000.0,0004.96,0007.56,0004.68
2022-01-24 02:26:00,,0822.7,5.00,0.00,25.7,24.9,00.0,34.8,27.4,08.2,0000.0,0004.87,0007.41,0004.61
2022-01-24 02:27:00,,0822.7,4.99,0.00,25.6,24.8,00.0,34.7,27.4,08.1,0000.0,0004.82,0007.42,0004.56
2022-01-24 02:28:00,,0822.7,5.00,0.00,25.6,24.8,00.0,34.7,27.4,08.1,0000.0,0004.76,0007.33,0004.50
2022-01-24 02:29:00,,0822.8,5.00,0.00,25.6,24.8,00.0,34.7,27.4,08.0,0000.0,0004.72,0007.24,0004.46
2022-01-24 02:30:00,,0822.7,5.00,0.00,25.6,24.8,00.0,34.7,27.4,08.0,0000.0,0004.72,0007.31,0004.45
2022-01-24 02:31:00,,0822.7,5.00,0.00,25.6,24.8,00.0,34.7,27.3,08.0,0000.0,0004.71,0007.52,0004.43
2022-01-24 02:32:00,,0822.7,5.01,0.00,25.5,24.7,00.0,34.7,27.2,07.9,0000.0,0004.70,0007.63,0004.40
2022-01-24 02:33:00,,0822.7,4.99,0.00,25.5,24.6,00.0,34.6,27.1,07.9,0000.0,0004.65,0008.08,0004.35
2022-01-24 02:34:00,,0822.7,5.01,0.00,25.4,24.6,00.0,34.6,27.1,07.9,0000.0,0004.58,0008.00,0004.31
2022-01-24 02:35:00,,0822.7,5.00,0.00,25.4,24.5,00.0,34.6,27.0,08.0,0000.0,0004.59,0008.03,0004.31
2022-01-24 02:36:00,,0822.7,5.00,0.00,25.3,24.4,00.0,34.6,27.0,07.9,0000.0,0004.60,0008.29,0004.32
2022-01-24 02:37:00,,0822.7,5.01,0.00,25.3,24.4,00.0,34.5,27.0,08.0,0000.0,0004.62,0008.56,0004.33
2022-01-24 02:38:00,,0822.6,4.98,0.00,25.3,24.4,00.0,34.5,27.0,08.0,0000.0,0004.63,0008.61,0004.32
2022-01-24 02:39:00,,0822.6,5.00,0.00,25.3,24.4,00.0,34.5,26.9,08.0,0000.0,0004.64,0008.71,0004.31
2022-01-24 02:40:00,,0822.6,5.00,0.00,25.2,24.4,00.0,34.5,26.9,08.1,0000.0,0004.63,0008.72,0004.30
2022-01-24 02:41:00,,0822.6,5.00,0.00,25.2,24.3,00.0,34.4,26.9,08.1,0000.0,0004.60,0008.67,0004.28
2022-01-24 02:42:00,,0822.5,4.99,0.00,25.2,24.3,00.0,34.4,26.9,08.0,0000.0,0004.57,0008.48,0004.26
2022-01-24 02:43:00,,0822.5,5.00,0.00,25.2,24.3,00.0,34.4,26.9,08.1,0000.0,0004.52,0008.40,0004.22
2022-01-24 02:44:00,,0822.5,5.01,0.00,25.1,24.3,00.0,34.4,26.8,08.1,0000.0,0004.52,0008.34,0004.20
2022-01-24 02:45:00,,0822.5,5.00,0.00,25.1,24.3,00.0,34.3,26.8,08.1,0000.0,0004.42,0008.19,0004.13
2022-01-24 02:46:00,,0822.5,5.00,0.00,25.1,24.2,00.0,34.3,26.7,08.0,0000.0,0004.21,0007.90,0003.95
2022-01-24 02:47:00,,0822.5,4.99,0.00,25.0,24.2,00.0,34.3,26.6,08.2,0000.0,0004.02,0007.35,0003.77
2022-01-24 02:48:00,,0822.5,5.02,0.00,25.0,24.2,00.0,34.2,26.6,08.2,0000.0,0003.79,0006.64,0003.58
2022-01-24 02:49:00,,0822.5,4.99,0.00,24.9,24.1,00.0,34.2,26.6,08.2,0000.0,0003.55,0005.95,0003.36
2022-01-24 02:50:00,,0822.5,5.00,0.00,24.9,24.1,00.0,34.2,26.5,08.3,0000.0,0003.32,0005.34,0003.14
2022-01-24 02:51:00,,0822.6,4.99,0.00,24.8,24.0,00.0,34.1,26.5,08.3,0000.0,0003.02,0004.76,0002.75
2022-01-24 02:52:00,,0822.5,5.01,0.00,24.9,24.1,00.0,34.1,26.6,08.4,0000.0,0002.60,0004.23,0002.36
2022-01-24 02:53:00,,0822.6,5.00,0.00,24.9,24.1,00.0,34.1,26.6,08.5,0000.0,0002.17,0003.59,0001.98
2022-01-24 02:54:00,,0822.6,5.00,0.00,24.9,24.1,00.0,34.1,26.6,08.7,0000.0,0001.76,0002.82,0001.65
2022-01-24 02:55:00,,0822.6,4.99,0.00,24.9,24.2,00.0,34.1,26.7,08.7,0000.0,0001.34,0001.52,0001.28
2022-01-24 02:56:00,,0822.6,4.99,0.00,24.9,24.3,00.0,34.1,26.7,08.7,0000.0,0001.10,0001.27,0001.03
2022-01-24 02:57:00,,0822.6,5.00,0.00,25.0,24.3,00.0,34.1,26.8,08.9,0000.0,0001.07,0001.31,0000.97
2022-01-24 02:58:00,,0822.6,5.01,0.00,25.0,24.4,00.0,34.0,26.8,08.8,0000.0,0001.07,0001.34,0000.97
2022-01-24 02:59:00,,0822.6,5.01,0.00,25.0,24.4,00.0,34.0,26.8,08.7,0000.0,0001.07,0001.39,0000.97
